{"data":{"norad_id":66302,"epoch":"2026-05-25T00:30:45.885024Z","epoch_age_seconds":66449,"freshness":"FRESH","line1":"1 66302U 25248K   26145.02136441  .00003729  00000+0  24875-3 0  9996","line2":"2 66302  45.4050 255.1199 0007617 262.8934  97.1082 15.08838177 32026","mean_motion":15.08838177,"eccentricity":0.0007617,"inclination_deg":45.405,"raan_deg":255.1199,"arg_perigee_deg":262.8934,"mean_anomaly_deg":97.1082,"bstar":0.00024875,"rev_number":3202,"period_min":95.437669986793,"perigee_km":534.4796074148,"apogee_km":545.01831488802,"semimajor_km":6917.8859611514,"source":"CELESTRAK","updated_at":"2026-05-25T13:38:06.130047Z"}}